|
Cosmos 389 Rocket - Orbit
|
Rock Hill;
10:09:05
| Home | Info | Passes |
|
View from above orbital plane
|
View from above satellite
|
Ground track
|
The orbit data is extracted from the following two-line orbital elements,
1 04814U 70113B 13138.84057404 .00006060 00000-0 28068-3 0 1910
2 04814 081.1495 356.8859 0037023 104.8605 255.6730 15.19307408307051
| Epoch (UTC): | 18 May 2013 20:10:25 |
| Eccentricity: | 0.0037023 |
| inclination: | 81.1495° |
| perigee height: | 482 km |
| apogee height: | 533 km |
| right ascension of ascending node: | 356.8859° |
| argument of perigee: | 104.8605° |
| revolutions per day: | 15.19307408 |
| mean anomaly at epoch: | 255.6730° |
| orbit number at epoch: | 30705 |
The dashed part of the orbit path shows where the satellite is in the earth's shadow,
|
|